ATLAS 5 CENTAUR DEB, 44694

Orbit data source: Space-Track

ATLAS 5 CENTAUR DEB, 44694 is space debris in HEO originally from a launch on Wed, 17 Oct 2018 UTC launched from the Air Force Eastern Test Range (AFETR). Debris objects in space refer to the collection of defunct objects orbiting the Earth. Examples of debris include non-operational satellites, rocket bodies, and fragments generated from explosions, collisions, or faulty payload assembly.

Loading next visibility...
Identifier
44694, 2018-079BG
Orbit
HEO
Country
Flag of USUS
Related business
Flag of USUnited Launch Alliance/Lockheed Martin (US)
Manufacturer
ULA Decatur
Mission
Spacecraft
Bus & Motor
Unknown
Mass
Unknown
Launch date (UTC)
2018-10-17 (7 years ago)
Launch vehicle
Unknown
Launch site
Air Force Eastern Test Range (AFETR)
Object type
Payload
Rocket body
Debris
Shape & HBR
Unknown shape, 1.1 m
Radar Cross Section
RCS unknown

Expand to show TLE details & history
Last TLE update: 3 days ago

TLE from 3 days ago
0 ATLAS 5 CENTAUR DEB
1 44694U 18079BG  25285.87738219 -.00000100  00000-0  00000-0 0  9991
2 44694  13.3559  59.3952 4745603 259.3795  45.7896  1.77426823 42170
Epoch: 2025-10-12T21:03Z
TLE epoch observation values (Epoch: 2025-10-12T21:03:25.821Z)
Latitude
-0.00002°
Longitude
81.81126°
Altitude
18,078.688 km
Speed
4.332 km/s
True Right ascension
03h 57m 25s
True Declination
0° 00' 00"
Sunlit
Object was in daylight at epoch
Visualization orbit readout
Latitude
Unknown
Longitude
Unknown
Altitude
Unknown
Speed
Unknown
Apparent Right ascension
Unknown
Apparent Declination
Unknown
Sunlit
N/A
Visualization observer readout
Local Sidereal Time
08:08:56
Azimuth
Unknown
Elevation
Unknown
Doppler factor
Unknown
Orbital elements
Apogee altitude
36,124.53 km
Perigee altitude
8,767.116 km
Semi-major axis
28,823.96 km
Eccentricity
0.47456
Inclination
13.3559°
RAAN
59.3952°
Arg. of periapsis
259.3795°
True anomaly
100.76007°
Mean anomaly
45.7896°
Eccentric anomaly
71.58803°
Mean motion
0.44352 °/min
Orbital period
811.69 mins
BSTAR
0
Loading maneuver chart data...
Computing Atmospheric mass density...

Documentation

Showing up to 5 results
|